Date String (YYYY-MM-DD hh:mm:ss) UTC,Instrument flags,Ambient pressure (hPa),Sample flow (lpm),Bypass flow (lpm),Sample temperature (°C),Ambient temperature (°C),ASC tube jacket temperature (°C),LED temperature (°C),Box temperature (°C),Sample RH (%),Span deviation,Mass concentration (μg/m³),Mass concentration (μg/m³),Mass concentration (μg/m³)
DateTimeUTC,F1_M11,P_M11,Q1_M11,Q2_M11,T1_M11,T2_M11,T3_M11,T4_M11,T5_M11,U1_M11,ZSPAN_M11,X0_M11,X2_M11,X1_M11
2021-09-22 15:00:00,,0835.6,5.00,0.00,28.3,27.5,00.0,37.3,30.1,13.4,0000.0,0007.81,0002.29,0001.76
2021-09-22 15:01:00,,0835.7,5.01,0.00,28.3,27.5,00.0,37.3,30.1,13.6,0000.0,0007.95,0002.33,0001.76
2021-09-22 15:02:00,,0835.7,4.99,0.00,28.3,27.5,00.0,37.3,30.2,13.8,0000.0,0007.83,0002.35,0001.76
2021-09-22 15:03:00,,0835.7,5.00,0.00,28.3,27.6,00.0,37.3,30.2,13.6,0000.0,0005.98,0002.35,0001.77
2021-09-22 15:04:00,,0835.7,5.00,0.00,28.4,27.6,00.0,37.4,30.2,13.8,0000.0,0005.64,0002.32,0001.78
2021-09-22 15:05:00,,0835.7,5.00,0.00,28.4,27.6,00.0,37.4,30.2,14.4,0000.0,0005.41,0002.32,0001.77
2021-09-22 15:06:00,,0835.7,5.01,0.00,28.4,27.6,00.0,37.4,30.3,14.4,0000.0,0005.09,0002.30,0001.76
2021-09-22 15:07:00,,0835.7,4.99,0.00,28.4,27.6,00.0,37.4,30.3,14.1,0000.0,0004.43,0002.30,0001.75
2021-09-22 15:08:00,,0835.7,4.99,0.00,28.4,27.6,00.0,37.4,30.3,13.9,0000.0,0004.68,0002.38,0001.76
2021-09-22 15:09:00,,0835.7,5.01,0.00,28.4,27.7,00.0,37.4,30.3,14.1,0000.0,0005.82,0002.41,0001.76
2021-09-22 15:10:00,,0835.7,4.99,0.00,28.5,27.7,00.0,37.5,30.3,14.6,0000.0,0006.87,0002.40,0001.76
2021-09-22 15:11:00,,0835.7,4.99,0.00,28.5,27.7,00.0,37.5,30.3,14.5,0000.0,0007.70,0002.41,0001.77
2021-09-22 15:12:00,,0835.7,5.01,0.00,28.5,27.7,00.0,37.5,30.4,13.2,0000.0,0007.96,0002.40,0001.78
2021-09-22 15:13:00,,0835.6,5.00,0.00,28.5,27.7,00.0,37.5,30.4,13.7,0000.0,0007.98,0002.42,0001.80
2021-09-22 15:14:00,,0835.7,5.00,0.00,28.5,27.8,00.0,37.5,30.4,13.6,0000.0,0008.02,0002.41,0001.78
2021-09-22 15:15:00,,0835.7,5.01,0.00,28.6,27.8,00.0,37.6,30.4,13.7,0000.0,0008.00,0002.40,0001.77
2021-09-22 15:16:00,,0835.7,4.98,0.00,28.6,27.8,00.0,37.6,30.4,14.1,0000.0,0007.85,0002.36,0001.76
2021-09-22 15:17:00,,0835.7,5.01,0.00,28.6,27.8,00.0,37.6,30.4,14.2,0000.0,0007.87,0002.38,0001.76
2021-09-22 15:18:00,,0835.7,5.00,0.00,28.6,27.9,00.0,37.6,30.5,14.2,0000.0,0007.81,0002.40,0001.77
2021-09-22 15:19:00,,0835.7,4.99,0.00,28.6,27.9,00.0,37.6,30.5,14.0,0000.0,0007.84,0002.38,0001.77
2021-09-22 15:20:00,,0835.6,4.99,0.00,28.6,27.9,00.0,37.6,30.5,13.4,0000.0,0006.90,0002.36,0001.76
2021-09-22 15:21:00,,0835.7,4.99,0.00,28.7,27.9,00.0,37.7,30.5,13.9,0000.0,0006.06,0002.39,0001.75
2021-09-22 15:22:00,,0835.6,5.01,0.00,28.7,27.9,00.0,37.7,30.5,14.7,0000.0,0006.13,0002.43,0001.75
2021-09-22 15:23:00,,0835.6,5.00,0.00,28.7,28.0,00.0,37.7,30.6,13.9,0000.0,0007.08,0002.44,0001.73
2021-09-22 15:24:00,,0835.6,5.01,0.00,28.7,28.0,00.0,37.7,30.6,13.8,0000.0,0007.10,0002.46,0001.72
2021-09-22 15:25:00,,0835.6,5.01,0.00,28.7,28.0,00.0,37.7,30.6,14.2,0000.0,0007.83,0002.49,0001.73
2021-09-22 15:26:00,,0835.6,4.99,0.00,28.8,28.0,00.0,37.7,30.6,14.0,0000.0,0007.91,0002.50,0001.74
2021-09-22 15:27:00,,0835.6,5.02,0.00,28.8,28.0,00.0,37.8,30.6,13.9,0000.0,0008.45,0002.55,0001.75
2021-09-22 15:28:00,,0835.6,5.01,0.00,28.8,28.0,00.0,37.8,30.7,13.8,0000.0,0008.68,0002.56,0001.76
2021-09-22 15:29:00,,0835.6,4.99,0.00,28.8,28.1,00.0,37.8,30.7,13.5,0000.0,0009.74,0002.53,0001.75
2021-09-22 15:30:00,,0835.6,5.00,0.00,28.8,28.1,00.0,37.8,30.7,13.4,0000.0,0009.78,0002.46,0001.73
2021-09-22 15:31:00,,0835.6,5.01,0.00,28.8,28.1,00.0,37.8,30.7,13.4,0000.0,0009.81,0002.46,0001.73
2021-09-22 15:32:00,,0835.6,5.00,0.00,28.9,28.1,00.0,37.9,30.7,13.3,0000.0,0010.75,0002.46,0001.74
2021-09-22 15:33:00,,0835.6,5.01,0.00,28.9,28.1,00.0,37.9,30.7,13.3,0000.0,0010.70,0002.44,0001.73
2021-09-22 15:34:00,,0835.6,5.00,0.00,28.9,28.2,00.0,37.9,30.8,13.4,0000.0,0009.87,0002.44,0001.74
2021-09-22 15:35:00,,0835.6,4.99,0.00,28.9,28.2,00.0,37.9,30.8,13.2,0000.0,0009.81,0002.41,0001.75
2021-09-22 15:36:00,,0835.6,5.00,0.00,28.9,28.2,00.0,37.9,30.8,13.1,0000.0,0009.22,0002.42,0001.75
2021-09-22 15:37:00,,0835.5,4.99,0.00,29.0,28.2,00.0,37.9,30.8,13.3,0000.0,0009.26,0002.44,0001.74
2021-09-22 15:38:00,,0835.5,5.00,0.00,29.0,28.3,00.0,38.0,30.8,13.0,0000.0,0009.24,0002.45,0001.74
2021-09-22 15:39:00,,0835.5,5.01,0.00,29.0,28.3,00.0,38.0,30.9,12.9,0000.0,0009.63,0002.47,0001.74
2021-09-22 15:40:00,,0835.5,5.00,0.00,29.0,28.3,00.0,38.0,30.9,13.0,0000.0,0008.84,0002.48,0001.74
2021-09-22 15:41:00,,0835.5,4.99,0.00,29.0,28.3,00.0,38.0,30.9,12.9,0000.0,0008.52,0002.46,0001.73
2021-09-22 15:42:00,,0835.5,5.01,0.00,29.1,28.4,00.0,38.0,30.9,12.9,0000.0,0008.48,0002.47,0001.72
2021-09-22 15:43:00,,0835.5,5.00,0.00,29.1,28.4,00.0,38.1,30.9,12.8,0000.0,0008.07,0002.46,0001.72
2021-09-22 15:44:00,,0835.5,5.01,0.00,29.1,28.4,00.0,38.1,31.0,13.7,0000.0,0007.65,0002.46,0001.72
2021-09-22 15:45:00,,0835.5,5.00,0.00,29.1,28.4,00.0,38.1,31.0,13.3,0000.0,0007.68,0002.46,0001.72
2021-09-22 15:46:00,,0835.5,4.99,0.00,29.1,28.4,00.0,38.1,31.0,12.9,0000.0,0007.80,0002.49,0001.71
2021-09-22 15:47:00,,0835.5,5.00,0.00,29.2,28.4,00.0,38.1,31.1,12.8,0000.0,0007.79,0002.49,0001.71
2021-09-22 15:48:00,,0835.5,5.00,0.00,29.2,28.5,00.0,38.2,31.1,13.0,0000.0,0007.68,0002.47,0001.72
2021-09-22 15:49:00,,0835.5,5.00,0.00,29.2,28.5,00.0,38.2,31.1,13.1,0000.0,0007.61,0002.45,0001.73
2021-09-22 15:50:00,,0835.5,5.01,0.00,29.2,28.5,00.0,38.2,31.1,12.9,0000.0,0007.07,0002.45,0001.72
2021-09-22 15:51:00,,0835.5,4.99,0.00,29.3,28.6,00.0,38.2,31.1,12.9,0000.0,0006.68,0002.39,0001.71
2021-09-22 15:52:00,,0835.5,5.01,0.00,29.3,28.6,00.0,38.2,31.1,12.9,0000.0,0006.70,0002.42,0001.72
2021-09-22 15:53:00,,0835.5,4.99,0.00,29.3,28.6,00.0,38.3,31.2,13.2,0000.0,0006.70,0002.40,0001.73
2021-09-22 15:54:00,,0835.5,5.02,0.00,29.3,28.6,00.0,38.3,31.2,13.4,0000.0,0006.70,0002.38,0001.72
2021-09-22 15:55:00,,0835.5,4.99,0.00,29.3,28.6,00.0,38.3,31.2,13.1,0000.0,0006.67,0002.43,0001.73
2021-09-22 15:56:00,,0835.5,5.00,0.00,29.4,28.6,00.0,38.3,31.2,12.6,0000.0,0006.74,0002.44,0001.74
2021-09-22 15:57:00,,0835.5,5.01,0.00,29.4,28.7,00.0,38.3,31.2,12.4,0000.0,0006.54,0002.40,0001.75
2021-09-22 15:58:00,,0835.5,5.00,0.00,29.4,28.7,00.0,38.4,31.3,12.5,0000.0,0006.65,0002.36,0001.76
2021-09-22 15:59:00,,0835.5,4.99,0.00,29.4,28.7,00.0,38.4,31.3,12.6,0000.0,0007.30,0002.36,0001.75
